EW9544 Weather Reports


Display with metric or nautical units.
time (UTC)temp
F
wind
direction
speed
MPH
gust
MPH
rain 1hr
in
rain 24hr
in
rain mn
in
humidity
%
barometer
mb
20260509222616 56 312 0.0 1.0 0.00 0.00 0.00 94 1009.9
20260509222117 56 359 0.0 2.0 0.00 0.00 0.00 94 1009.3
20260509220616 56 359 0.0 1.0 0.00 0.00 0.00 94 1009.6
20260509220116 56 205 0.0 0.0 0.00 0.00 0.00 94 1010.1
20260509215616 56 203 0.0 1.0 0.00 0.00 0.00 94 1009.5
20260509215117 56 191 0.0 1.0 0.00 0.00 0.00 94 1009.1
20260509214616 56 178 0.0 0.0 0.00 0.00 0.00 94 1009.3
20260509214117 56 359 0.0 0.0 0.00 0.00 0.00 94 1009.6
20260509213614 56 180 0.0 0.0 0.00 0.00 0.00 93 1009.6
20260509213115 56 179 0.0 0.0 0.00 0.00 0.00 93 1009.5
20260509212613 56 181 0.0 0.0 0.00 0.00 0.00 93 1009.5
20260509212114 56 178 0.0 2.0 0.00 0.00 0.00 93 1009.6
20260509211615 56 359 0.0 2.0 0.00 0.00 0.00 93 1009.7
20260509210613 56 239 0.0 0.0 0.00 0.00 0.00 93 1009.8
20260509210115 56 359 0.0 0.0 0.00 0.00 0.00 93 1009.7
20260509205613 56 239 0.0 0.0 0.00 0.00 0.00 93 1009.7
20260509205115 56 241 0.0 0.0 0.00 0.00 0.00 93 1009.8
20260509204613 56 241 0.0 0.0 0.00 0.00 0.00 93 1009.7
20260509204113 56 241 0.0 0.0 0.00 0.00 0.00 93 1009.6
20260509203615 56 241 0.0 0.0 0.00 0.00 0.00 93 1009.7
20260509203114 56 259 0.0 0.0 0.00 0.00 0.00 93 1010.0
20260509202614 56 258 0.0 0.0 0.00 0.00 0.00 93 1010.1
20260509202113 55 253 0.0 0.0 0.00 0.00 0.00 93 1010.1
20260509201115 55 359 0.0 2.0 0.00 0.00 0.00 93 1010.0
20260509200114 55 359 2.0 7.0 0.00 0.00 0.00 92 1009.8
20260509195614 56 359 2.0 7.0 0.00 0.00 0.00 92 1009.7
20260509194614 57 359 0.0 1.0 0.00 0.00 0.00 92 1009.1
20260509194114 57 106 0.0 1.0 0.00 0.00 0.00 92 1008.6
20260509193615 57 315 0.0 1.0 0.00 0.00 0.00 91 1010.2
20260509193115 57 316 0.0 1.0 0.00 0.00 0.00 91 1010.1
20260509192614 57 21 0.0 0.0 0.00 0.00 0.00 91 1010.0
20260509192113 57 21 0.0 1.0 0.00 0.00 0.00 91 1010.0
20260509191614 57 21 0.0 1.0 0.00 0.00 0.00 90 1010.2
20260509191114 57 359 0.0 1.0 0.00 0.00 0.00 90 1010.3
20260509190615 57 251 0.0 1.0 0.00 0.00 0.00 90 1010.2
20260509190113 57 251 0.0 1.0 0.00 0.00 0.00 90 1010.2
20260509185614 57 242 0.0 1.0 0.00 0.00 0.00 90 1010.1
20260509185114 57 239 0.0 0.0 0.00 0.00 0.00 89 1010.0
20260509184614 56 222 0.0 0.0 0.00 0.00 0.00 89 1009.7
20260509184113 56 224 0.0 1.0 0.00 0.00 0.00 88 1010.0
20260509183115 56 222 1.0 5.0 0.00 0.00 0.00 88 1010.0
20260509182615 56 213 1.0 5.0 0.00 0.00 0.00 87 1009.8
20260509182113 56 203 1.0 5.0 0.00 0.00 0.00 87 1009.6
20260509180114 56 210 2.0 5.0 0.00 0.00 0.00 86 1009.5
20260509175613 56 220 1.0 4.0 0.00 0.00 0.00 86 1009.5
20260509175114 56 187 1.0 4.0 0.00 0.00 0.00 85 1009.4
20260509174613 56 196 1.0 3.0 0.00 0.00 0.00 84 1009.5
20260509174113 57 223 0.0 2.0 0.00 0.00 0.00 83 1009.4
20260509173615 58 213 0.0 2.0 0.00 0.00 0.00 82 1009.4
20260509173115 58 218 0.0 1.0 0.00 0.00 0.00 81 1009.4
20260509172612 58 193 0.0 1.0 0.00 0.00 0.00 81 1009.3
20260509172112 59 202 0.0 1.0 0.00 0.00 0.00 80 1009.4
20260509171612 59 166 0.0 1.0 0.00 0.00 0.00 81 1009.3
20260509171112 59 195 0.0 1.0 0.00 0.00 0.00 81 1009.4
20260509170111 59 199 0.0 2.0 0.00 0.00 0.00 81 1009.4
20260509165611 59 160 0.0 2.0 0.00 0.00 0.00 81 1009.5
20260509165111 59 218 0.0 1.0 0.00 0.00 0.00 81 1009.6
20260509164611 58 199 0.0 1.0 0.00 0.00 0.00 80 1009.6
20260509164111 58 195 0.0 1.0 0.00 0.00 0.00 80 1010.0
20260509163612 58 212 0.0 1.0 0.00 0.00 0.00 80 1009.8
20260509162610 59 228 0.0 1.0 0.00 0.00 0.00 80 1010.1
20260509162109 58 211 0.0 1.0 0.00 0.00 0.00 81 1010.1
20260509161609 58 206 0.0 1.0 0.00 0.00 0.00 81 1010.4
20260509161109 58 191 0.0 1.0 0.00 0.00 0.00 82 1010.4
20260509160609 58 197 0.0 1.0 0.00 0.00 0.00 82 1010.5
20260509160110 58 204 0.0 0.0 0.00 0.00 0.00 81 1010.5
20260509155610 58 227 0.0 0.0 0.00 0.00 0.00 82 1010.5
20260509155110 58 206 0.0 0.0 0.00 0.00 0.00 82 1010.6
20260509154610 58 201 0.0 0.0 0.00 0.00 0.00 82 1010.6
20260509154108 58 199 0.0 0.0 0.00 0.00 0.00 82 1010.6
20260509153607 58 197 0.0 0.0 0.00 0.00 0.00 82 1010.6
20260509153107 58 168 0.0 0.0 0.00 0.00 0.00 82 1010.7
20260509152607 58 171 0.0 0.0 0.00 0.00 0.00 83 1010.6
20260509152107 57 166 0.0 0.0 0.00 0.00 0.00 83 1010.6
20260509151607 58 186 0.0 0.0 0.00 0.00 0.00 83 1010.7
20260509151107 57 196 0.0 0.0 0.00 0.00 0.00 84 1010.7
20260509150607 57 158 0.0 0.0 0.00 0.00 0.00 83 1010.7
20260509150106 57 156 0.0 0.0 0.00 0.00 0.00 84 1010.7
20260509145106 57 193 0.0 0.0 0.00 0.00 0.00 85 1010.8
20260509144606 57 211 0.0 0.0 0.00 0.00 0.00 85 1010.9
20260509144105 57 190 0.0 0.0 0.00 0.00 0.00 86 1010.8
20260509143106 56 208 0.0 2.0 0.00 0.00 0.00 87 1010.6
20260509142605 55 106 0.0 2.0 0.00 0.00 0.00 87 1010.5
20260509142106 55 197 0.0 2.0 0.00 0.00 0.00 88 1010.8
20260509141606 55 180 0.0 3.0 0.00 0.00 0.00 89 1010.8
20260509141106 55 177 0.0 3.0 0.00 0.00 0.00 88 1011.0
20260509140607 55 214 0.0 3.0 0.00 0.00 0.00 89 1011.2
20260509140104 55 202 0.0 2.0 0.00 0.00 0.00 89 1010.7
20260509135604 55 137 0.0 2.0 0.00 0.00 0.00 89 1010.5
20260509135103 55 216 0.0 2.0 0.00 0.00 0.00 90 1010.8
20260509134603 54 152 0.0 2.0 0.00 0.00 0.00 90 1010.5
20260509134103 54 199 0.0 1.0 0.00 0.00 0.00 90 1010.9
20260509133604 54 220 0.0 2.0 0.00 0.00 0.00 90 1011.0
20260509132602 53 193 0.0 1.0 0.00 0.00 0.00 91 1011.1
20260509131603 53 169 0.0 2.0 0.00 0.00 0.00 91 1011.0
20260509131100 53 156 0.0 2.0 0.00 0.00 0.00 91 1011.1
20260509130101 53 208 0.0 2.0 0.00 0.00 0.00 91 1011.4
20260509125600 53 184 0.0 2.0 0.00 0.00 0.00 91 1011.2
20260509125101 53 150 0.0 2.0 0.00 0.00 0.00 91 1011.0
20260509124602 53 177 0.0 2.0 0.00 0.00 0.00 91 1011.1
20260509124101 53 179 0.0 1.0 0.00 0.00 0.00 91 1011.2
20260509123601 52 146 0.0 1.0 0.00 0.00 0.00 91 1011.4
20260509123102 52 155 0.0 2.0 0.00 0.00 0.00 91 1011.5
20260509122602 52 179 0.0 2.0 0.00 0.00 0.00 90 1011.5
20260509122059 52 121 0.0 2.0 0.00 0.00 0.00 91 1011.5
20260509121600 52 116 0.0 2.0 0.00 0.00 0.00 90 1011.6
20260509121058 52 162 0.0 1.0 0.00 0.00 0.00 90 1011.7
20260509120558 52 121 0.0 1.0 0.00 0.00 0.00 90 1011.7
20260509120059 52 143 0.0 2.0 0.00 0.00 0.00 90 1011.7
20260509115558 52 147 0.0 2.0 0.00 0.00 0.00 90 1011.7
20260509115059 52 131 0.0 2.0 0.00 0.00 0.00 90 1011.7
20260509114559 52 164 0.0 4.0 0.00 0.00 0.00 90 1011.8
20260509114059 52 160 0.0 4.0 0.00 0.00 0.00 90 1011.4
20260509113559 52 146 0.0 2.0 0.00 0.00 0.00 90 1011.4
20260509113056 52 151 0.0 2.0 0.00 0.00 0.00 90 1011.6
20260509112054 52 143 0.0 2.0 0.00 0.00 0.00 90 1011.6
20260509111556 52 189 0.0 3.0 0.00 0.00 0.00 90 1011.5
20260509110554 52 174 0.0 2.0 0.00 0.00 0.00 90 1011.4
20260509110055 52 154 0.0 1.0 0.00 0.00 0.00 90 1011.5
20260509105556 52 95 0.0 2.0 0.00 0.00 0.00 90 1011.4
20260509104553 52 191 0.0 3.0 0.00 0.00 0.00 89 1011.3
20260509104054 52 151 0.0 3.0 0.00 0.00 0.00 89 1011.3
20260509103053 52 201 0.0 1.0 0.00 0.00 0.00 89 1011.1
20260509102553 52 200 0.0 1.0 0.00 0.00 0.00 89 1011.0
20260509102054 52 127 0.0 1.0 0.00 0.00 0.00 89 1011.0
20260509101554 52 118 0.0 2.0 0.00 0.00 0.00 89 1011.0
20260509101053 52 91 0.0 2.0 0.00 0.00 0.00 89 1011.0
20260509100552 52 147 0.0 1.0 0.00 0.00 0.00 88 1011.0
20260509095552 52 120 0.0 1.0 0.00 0.00 0.00 88 1011.0
20260509095053 52 139 0.0 1.0 0.00 0.00 0.00 88 1011.0
20260509094553 52 153 0.0 1.0 0.00 0.00 0.00 88 1011.0
20260509094054 52 168 0.0 1.0 0.00 0.00 0.00 88 1010.9
20260509093552 52 127 0.0 1.0 0.00 0.00 0.00 88 1010.8
20260509093054 52 115 0.0 1.0 0.00 0.00 0.00 88 1010.7
20260509092053 52 114 0.0 1.0 0.00 0.00 0.00 88 1010.8
20260509091553 52 112 0.0 1.0 0.00 0.00 0.00 88 1010.8
20260509091053 52 119 0.0 2.0 0.00 0.00 0.00 88 1010.9
20260509090552 52 133 0.0 2.0 0.00 0.00 0.00 88 1010.9
20260509090053 52 134 0.0 2.0 0.00 0.00 0.00 88 1011.0
20260509085553 52 142 0.0 1.0 0.00 0.00 0.00 88 1011.0
20260509085052 52 113 0.0 1.0 0.00 0.00 0.00 88 1011.0
20260509084552 52 202 0.0 1.0 0.00 0.00 0.00 87 1011.0
20260509084053 52 184 0.0 0.0 0.00 0.00 0.00 87 1011.1
20260509083550 52 169 0.0 0.0 0.00 0.00 0.00 87 1011.2
20260509083051 52 168 0.0 0.0 0.00 0.00 0.00 87 1011.3
20260509082551 52 137 0.0 0.0 0.00 0.00 0.00 87 1011.4
20260509082050 52 101 0.0 1.0 0.00 0.00 0.00 87 1011.3
20260509081551 52 101 0.0 1.0 0.00 0.00 0.00 87 1011.3
20260509081051 52 122 0.0 1.0 0.00 0.00 0.00 87 1011.2
20260509080051 51 106 0.0 1.0 0.00 0.00 0.00 87 1011.1
20260509075550 51 108 0.0 1.0 0.00 0.00 0.00 87 1011.2
20260509075050 51 108 0.0 1.0 0.00 0.00 0.00 87 1011.1
20260509074549 51 110 0.0 1.0 0.00 0.00 0.00 87 1011.1
20260509073048 51 139 0.0 1.0 0.00 0.00 0.00 86 1011.0
20260509072549 52 139 0.0 1.0 0.00 0.00 0.00 86 1011.1
20260509071548 52 172 0.0 1.0 0.00 0.00 0.00 85 1011.1
20260509071048 52 193 0.0 1.0 0.00 0.00 0.00 85 1011.1
20260509070049 52 236 0.0 2.0 0.00 0.00 0.00 85 1011.2
20260509065046 52 235 0.0 0.0 0.00 0.00 0.00 84 1011.1
20260509064546 52 236 0.0 0.0 0.00 0.00 0.00 84 1011.1
20260509064046 52 235 0.0 1.0 0.00 0.00 0.00 84 1011.2
20260509062546 52 337 0.0 0.0 0.00 0.00 0.00 82 1011.2
20260509062047 53 337 0.0 1.0 0.00 0.00 0.00 82 1011.3
20260509061546 53 337 0.0 1.0 0.00 0.00 0.00 81 1011.4
20260509060543 53 332 0.0 0.0 0.00 0.00 0.00 81 1011.6
20260509060044 53 332 0.0 0.0 0.00 0.00 0.00 81 1011.6
20260509055544 53 332 0.0 0.0 0.00 0.00 0.00 81 1011.4
20260509055044 53 333 0.0 0.0 0.00 0.00 0.00 80 1011.3
20260509054545 53 304 0.0 0.0 0.00 0.00 0.00 80 1011.4
20260509053545 53 303 0.0 1.0 0.00 0.00 0.00 81 1011.6
20260509053043 52 303 0.0 0.0 0.00 0.00 0.00 81 1011.7
20260509052044 52 304 0.0 0.0 0.00 0.00 0.00 81 1011.5
20260509051543 52 303 0.0 0.0 0.00 0.00 0.00 80 1011.6
20260509051043 52 303 0.0 0.0 0.00 0.00 0.00 80 1011.6
20260509050542 53 303 0.0 0.0 0.00 0.00 0.00 79 1011.6
20260509050043 53 303 0.0 0.0 0.00 0.00 0.00 79 1011.6
20260509045542 53 303 0.0 0.0 0.00 0.00 0.00 79 1011.6
20260509045042 53 303 0.0 0.0 0.00 0.00 0.00 79 1011.4
20260509044539 53 303 0.0 0.0 0.00 0.00 0.00 79 1011.5
20260509044039 53 303 0.0 0.0 0.00 0.00 0.00 79 1011.5
20260509043538 53 303 0.0 0.0 0.00 0.00 0.00 79 1011.6
20260509042537 54 303 0.0 0.0 0.00 0.00 0.00 78 1011.6
20260509042038 54 303 0.0 0.0 0.00 0.00 0.00 78 1011.6
20260509041536 54 303 0.0 0.0 0.00 0.00 0.00 77 1011.6
20260509040036 55 303 0.0 1.0 0.00 0.00 0.00 77 1011.7
20260509035536 54 304 0.0 1.0 0.00 0.00 0.00 77 1011.8
20260509035038 54 296 0.0 1.0 0.00 0.00 0.00 77 1011.8
20260509034538 54 296 0.0 1.0 0.00 0.00 0.00 78 1011.8
20260509034036 54 295 0.0 1.0 0.00 0.00 0.00 79 1011.8
20260509033536 54 292 0.0 1.0 0.00 0.00 0.00 79 1011.7
20260509033037 54 293 0.0 0.0 0.00 0.00 0.00 80 1011.8
20260509032036 54 293 0.0 1.0 0.00 0.00 0.00 80 1011.9
20260509031538 54 291 0.0 1.0 0.00 0.00 0.00 80 1011.8
20260509031036 54 289 0.0 3.0 0.00 0.00 0.00 80 1011.8
20260509030036 54 264 1.0 6.0 0.00 0.00 0.00 78 1011.8
20260509025537 54 270 0.0 6.0 0.00 0.00 0.00 78 1011.8
20260509025037 54 268 1.0 4.0 0.00 0.00 0.00 79 1011.7
20260509024537 54 268 2.0 4.0 0.00 0.00 0.00 79 1011.6
20260509024038 54 247 2.0 4.0 0.00 0.00 0.00 80 1011.6
20260509023036 54 262 2.0 6.0 0.00 0.00 0.00 79 1011.4
20260509022537 54 251 3.0 7.0 0.00 0.00 0.00 78 1011.5
20260509021537 54 258 3.0 9.0 0.00 0.00 0.00 79 1011.5
20260509021038 55 250 3.0 9.0 0.00 0.00 0.00 78 1011.5
20260509020037 55 265 1.0 6.0 0.00 0.00 0.00 78 1011.4
20260509015537 55 277 0.0 2.0 0.00 0.00 0.00 77 1011.4
20260509015036 55 281 0.0 2.0 0.00 0.00 0.00 76 1011.3
20260509014536 55 278 0.0 1.0 0.00 0.00 0.00 73 1011.2
20260509014035 55 324 0.0 1.0 0.00 0.00 0.00 72 1011.0
20260509013535 55 345 0.0 1.0 0.00 0.00 0.00 71 1011.1
20260509013034 55 354 0.0 0.0 0.00 0.00 0.00 69 1011.0
20260509012535 55 354 0.0 0.0 0.00 0.00 0.00 70 1010.9
20260509012034 55 354 0.0 0.0 0.00 0.00 0.00 70 1010.9
20260509011534 55 354 0.0 0.0 0.00 0.00 0.00 67 1010.8
20260509010036 55 354 0.0 0.0 0.00 0.00 0.00 64 1010.7
20260509005534 55 354 0.0 0.0 0.00 0.00 0.00 63 1010.7
20260509005033 55 354 0.0 0.0 0.00 0.00 0.00 63 1010.5
20260509004534 56 354 0.0 0.0 0.00 0.00 0.00 63 1010.4
20260509004032 56 354 0.0 0.0 0.00 0.00 0.00 62 1010.2
20260509003033 56 354 0.0 0.0 0.00 0.00 0.00 61 1010.2
20260509002532 57 354 0.0 0.0 0.00 0.00 0.00 60 1010.1
20260509002032 57 354 0.0 1.0 0.00 0.00 0.00 60 1010.1
20260509001533 57 354 0.0 1.0 0.00 0.00 0.00 59 1010.2
20260509001032 57 354 0.0 1.0 0.00 0.00 0.00 59 1010.3
20260509000532 57 354 0.0 1.0 0.00 0.00 0.00 58 1010.2
20260509000031 58 354 0.0 1.0 0.00 0.00 0.00 58 1010.1
20260508235531 58 354 0.0 1.0 0.00 0.00 0.00 57 1010.1
20260508235031 58 349 0.0 1.0 0.00 0.00 0.00 56 1010.1
20260508234030 59 4 0.0 2.0 0.00 0.00 0.00 56 1009.9
20260508233530 59 4 0.0 2.0 0.00 0.00 0.00 56 1010.0
20260508233031 59 22 0.0 2.0 0.00 0.00 0.00 56 1010.0
20260508232532 59 29 0.0 2.0 0.00 0.00 0.00 56 1009.9
20260508232030 59 8 0.0 1.0 0.00 0.00 0.00 55 1009.8
20260508231029 59 12 0.0 2.0 0.00 0.00 0.00 55 1009.7
20260508230028 59 16 0.0 2.0 0.00 0.00 0.00 54 1009.6
20260508225028 59 359 0.0 4.0 0.00 0.00 0.00 54 1009.6
20260508224528 59 21 0.0 3.0 0.00 0.00 0.00 54 1009.6
20260508224029 59 34 0.0 2.0 0.00 0.00 0.00 54 1009.5